Overview Statistics Trail Chart Weather Telemetry Raw packets
 

This is the latest recevied weather packets stored in our database for station/object OK1TBM-13. If no packets are shown the sender has not sent any weather packets the latest 10 day(s).

<< 51 52 53 54 55 56 57 >>
Time Temp. Humidity Pressure Rain* Wind** Luminosity Snow
1788187201 25° C 59% 1014.2 hPa 0 mm - 408 W/m² -
1788186907 25.56° C 58% 1014.2 hPa 0 mm - 402 W/m² -
1788186601 25.56° C 60% 1014.2 hPa 0 mm - 461 W/m² -
1788186301 25.56° C 59% 1013.9 hPa 0 mm - 436 W/m² -
1788185701 25° C 59% 1013.9 hPa 0 mm - 538 W/m² -
1788185401 25° C 61% 1013.9 hPa 0 mm - 624 W/m² -
1788185101 24.44° C 66% 1013.9 hPa 0 mm - 484 W/m² -
1788184801 24.44° C 66% 1013.9 hPa 0 mm - 619 W/m² -
1788184501 24.44° C 66% 1013.9 hPa 0 mm - 247 W/m² -
1788183901 25° C 63% 1013.9 hPa 0 mm - 646 W/m² -
1788183301 24.44° C 66% 1013.9 hPa 0 mm - 678 W/m² -
1788183001 23.33° C 69% 1013.9 hPa 0 mm - 686 W/m² -
1788182702 23.89° C 67% 1014.2 hPa 0 mm - 298 W/m² -
1788181801 24.44° C 69% 1013.9 hPa 0 mm - 741 W/m² -
1788181500 24.44° C 69% 1013.9 hPa 0 mm - 540 W/m² -
1788181200 23.89° C 71% 1014.2 hPa 0 mm - 667 W/m² -
1788180900 22.78° C 73% 1014.2 hPa 0 mm - 200 W/m² -
1788180600 22.78° C 71% 1014.2 hPa 0 mm - 363 W/m² -
1788180302 23.33° C 73% 1014.2 hPa 0 mm - 327 W/m² -
1788180007 23.33° C 74% 1014.2 hPa 0 mm - 698 W/m² -
1788179700 21.67° C 77% 1014.2 hPa 0 mm - 638 W/m² -
1788179403 21.67° C 78% 1014.2 hPa 0 mm - 142 W/m² -
1788179102 22.22° C 77% 1014.2 hPa 0 mm - 139 W/m² -
1788178801 22.22° C 77% 1014.2 hPa 0 mm - 176 W/m² -
1788178502 22.22° C 76% 1014.2 hPa 0 mm - 364 W/m² -

* Rain latest hour (hover to see other rain measurements)
** Current wind speed in m/s (hover to see current wind gust speed)